Terug naar catalogus

FENGYUN 1C DEB

ActiefPO
NORAD 37048·DEBRIS·🇨🇳 China

Gelanceerd May 10, 1999 vanaf Taiyuan Satellite Launch Center

Loading…

Volgende Passages (komende 24 uur)

TLE

VersSource: Space-Track

Epoch: Sep 13, 2026, 09:17 UTC

1 37048U 99025EEG 26256.38742222  .00000186  00000-0  22089-3 0  9997
2 37048  98.8590  99.6408 0253026 150.0084 341.7929 13.65321344659170

Volg FENGYUN 1C DEB in realtime met AllMySat

Download on the App Store